GFSNE_prec_precacc6_243.txt.gz
Total_Precipitation_Accumulation
0.05 0.03 0.03 0.03 0.02 0.04 0.03 0.03 0.00 0.00 0.00 0.00 0.00 0.00 0.00 0.00 0.00 0.00 0.00 0.00 0.00 0.00 0.00 0.00 0.00 0.00 0.00 0.00 0.00 0.00 0.00 0.00 0.00 0.00 0.00 0.00 0.00 0.00
0.05 0.03 0.00 0.02 0.02 0.02 0.03 0.05 0.05 0.02 0.00 0.00 0.00 0.01 0.01 0.00 0.00 0.00 0.00 0.00 0.00 0.00 0.00 0.00 0.00 0.00 0.00 0.00 0.00 0.00 0.00 0.00 0.00 0.00 0.00 0.00 0.00 0.00
0.10 0.05 0.01 0.07 0.02 0.02 0.02 0.03 0.02 0.03 0.00 0.03 0.00 0.00 0.00 0.00 0.00 0.00 0.00 0.00 0.00 0.00 0.00 0.00 0.00 0.00 0.00 0.00 0.00 0.00 0.00 0.00 0.00 0.00 0.00 0.00 0.00 0.00
0.10 0.04 0.03 0.05 0.05 0.03 0.02 0.02 0.02 0.02 0.01 0.02 0.04 0.02 0.01 0.01 0.01 0.00 0.00 0.00 0.00 0.00 0.00 0.00 0.00 0.00 0.00 0.00 0.00 0.00 0.00 0.00 0.00 0.00 0.00 0.00 0.00 0.00
0.12 0.12 0.07 0.08 0.03 0.03 0.02 0.03 0.05 0.05 0.01 0.00 0.00 0.02 0.02 0.01 0.01 0.01 0.02 0.00 0.00 0.00 0.00 0.00 0.00 0.00 0.00 0.00 0.00 0.00 0.00 0.00 0.00 0.00 0.01 0.02 0.03 0.04
0.08 0.09 0.14 0.17 0.10 0.06 0.06 0.04 0.05 0.06 0.06 0.05 0.03 0.01 0.00 0.01 0.00 0.00 0.00 0.00 0.01 0.02 0.02 0.02 0.01 0.00 0.00 0.00 0.00 0.00 0.00 0.00 0.01 0.01 0.03 0.08 0.13 0.19
0.16 0.12 0.10 0.12 0.17 0.17 0.14 0.20 0.22 0.21 0.22 0.24 0.18 0.14 0.09 0.03 0.01 0.03 0.03 0.03 0.04 0.05 0.03 0.02 0.02 0.02 0.02 0.04 0.06 0.07 0.08 0.12 0.16 0.21 0.26 0.30 0.35 0.39
0.78 0.43 0.31 0.28 0.22 0.23 0.27 0.25 0.22 0.20 0.26 0.27 0.23 0.20 0.15 0.12 0.18 0.31 0.28 0.17 0.08 0.04 0.04 0.04 0.03 0.03 0.03 0.01 0.02 0.03 0.05 0.07 0.09 0.14 0.21 0.29 0.40 0.51
0.79 0.82 0.63 0.47 0.36 0.31 0.28 0.27 0.29 0.17 0.13 0.12 0.12 0.10 0.11 0.13 0.16 0.27 0.31 0.33 0.24 0.16 0.15 0.13 0.06 0.03 0.01 0.01 0.01 0.02 0.03 0.02 0.04 0.10 0.16 0.26 0.35 0.41
0.34 0.36 0.39 0.32 0.25 0.29 0.24 0.22 0.17 0.10 0.06 0.03 0.02 0.02 0.03 0.08 0.13 0.10 0.10 0.12 0.17 0.18 0.14 0.11 0.05 0.04 0.02 0.02 0.02 0.00 0.00 0.01 0.03 0.10 0.16 0.22 0.28 0.34
0.05 0.08 0.14 0.19 0.27 0.17 0.10 0.10 0.08 0.06 0.11 0.10 0.07 0.08 0.07 0.08 0.08 0.07 0.13 0.13 0.12 0.07 0.07 0.08 0.04 0.03 0.02 0.00 0.00 0.00 0.01 0.00 0.01 0.04 0.07 0.11 0.16 0.26
0.01 0.00 0.02 0.03 0.11 0.10 0.05 0.05 0.06 0.03 0.04 0.07 0.09 0.10 0.14 0.14 0.17 0.06 0.03 0.07 0.06 0.04 0.03 0.04 0.02 0.02 0.02 0.01 0.00 0.00 0.00 0.00 0.01 0.01 0.03 0.07 0.14 0.25
0.00 0.00 0.00 0.00 0.00 0.01 0.01 0.00 0.03 0.05 0.07 0.04 0.03 0.05 0.09 0.10 0.15 0.12 0.05 0.04 0.06 0.03 0.04 0.05 0.02 0.01 0.01 0.01 0.00 0.00 0.00 0.00 0.00 0.01 0.02 0.05 0.08 0.13
0.00 0.00 0.00 0.00 0.00 0.00 0.00 0.00 0.00 0.01 0.01 0.02 0.01 0.02 0.02 0.04 0.06 0.09 0.13 0.11 0.10 0.05 0.08 0.11 0.06 0.02 0.02 0.02 0.01 0.00 0.00 0.00 0.00 0.00 0.01 0.03 0.04 0.08
0.00 0.00 0.01 0.00 0.00 0.00 0.00 0.00 0.00 0.00 0.01 0.01 0.01 0.02 0.01 0.01 0.01 0.02 0.11 0.18 0.16 0.12 0.14 0.12 0.11 0.11 0.10 0.08 0.05 0.03 0.03 0.02 0.02 0.02 0.03 0.04 0.06 0.12
0.00 0.00 0.00 0.00 0.00 0.00 0.00 0.00 0.00 0.01 0.01 0.01 0.01 0.01 0.00 0.00 0.00 0.00 0.01 0.02 0.06 0.10 0.09 0.10 0.12 0.10 0.08 0.06 0.05 0.04 0.03 0.02 0.01 0.01 0.01 0.02 0.02 0.03
0.00 0.00 0.00 0.00 0.00 0.00 0.00 0.00 0.00 0.00 0.00 0.01 0.01 0.01 0.00 0.01 0.00 0.00 0.00 0.00 0.01 0.02 0.02 0.05 0.08 0.10 0.08 0.06 0.05 0.03 0.02 0.02 0.01 0.01 0.01 0.02 0.02 0.02
0.00 0.00 0.00 0.00 0.00 0.00 0.00 0.00 0.00 0.00 0.00 0.00 0.00 0.00 0.00 0.00 0.00 0.00 0.00 0.00 0.00 0.01 0.03 0.03 0.03 0.05 0.07 0.06 0.05 0.03 0.02 0.02 0.02 0.02 0.02 0.02 0.02 0.02
0.01 0.01 0.00 0.00 0.00 0.00 0.00 0.00 0.00 0.00 0.00 0.00 0.00 0.00 0.00 0.00 0.03 0.00 0.00 0.01 0.01 0.02 0.02 0.02 0.03 0.04 0.04 0.04 0.04 0.04 0.02 0.01 0.01 0.00 0.00 0.00 0.00 0.00
0.01 0.01 0.00 0.00 0.00 0.00 0.00 0.00 0.00 0.00 0.00 0.00 0.00 0.00 0.00 0.00 0.00 0.00 0.00 0.00 0.01 0.01 0.01 0.01 0.01 0.01 0.02 0.03 0.03 0.03 0.03 0.01 0.00 0.00 0.00 0.00 0.01 0.03
0.01 0.00 0.00 0.00 0.00 0.00 0.00 0.00 0.00 0.00 0.00 0.00 0.00 0.00 0.00 0.00 0.00 0.00 0.01 0.05 0.06 0.03 0.04 0.04 0.05 0.09 0.04 0.06 0.05 0.05 0.02 0.01 0.00 0.00 0.00 0.00 0.00 0.00
0.01 0.00 0.00 0.00 0.00 0.00 0.00 0.00 0.00 0.01 0.00 0.00 0.00 0.00 0.00 0.00 0.00 0.00 0.01 0.02 0.02 0.01 0.03 0.07 0.10 0.10 0.06 0.04 0.03 0.02 0.02 0.01 0.00 0.00 0.00 0.00 0.00 0.00
0.01 0.00 0.00 0.01 0.00 0.00 0.00 0.00 0.01 0.01 0.01 0.00 0.00 0.00 0.00 0.00 0.00 0.01 0.01 0.02 0.04 0.06 0.07 0.08 0.07 0.08 0.07 0.05 0.05 0.04 0.01 0.01 0.00 0.00 0.00 0.00 0.00 0.00

GFSNE_prec_precacc6_246.txt.gz
Total_Precipitation_Accumulation
0.02 0.01 0.01 0.01 0.00 0.01 0.01 0.01 0.00 0.00 0.00 0.00 0.00 0.00 0.00 0.00 0.00 0.00 0.00 0.00 0.00 0.00 0.00 0.00 0.00 0.00 0.00 0.00 0.00 0.00 0.00 0.00 0.00 0.00 0.00 0.00 0.00 0.00
0.04 0.03 0.00 0.01 0.01 0.01 0.01 0.01 0.01 0.00 0.00 0.00 0.00 0.00 0.00 0.00 0.00 0.00 0.00 0.00 0.00 0.00 0.00 0.00 0.00 0.00 0.00 0.00 0.00 0.00 0.00 0.00 0.00 0.00 0.00 0.00 0.00 0.00
0.10 0.05 0.01 0.05 0.02 0.01 0.01 0.00 0.00 0.01 0.00 0.00 0.00 0.00 0.00 0.00 0.00 0.00 0.00 0.00 0.00 0.00 0.00 0.00 0.00 0.00 0.00 0.00 0.00 0.00 0.00 0.00 0.00 0.00 0.00 0.00 0.00 0.00
0.11 0.04 0.02 0.04 0.04 0.04 0.02 0.00 0.01 0.02 0.00 0.00 0.02 0.01 0.00 0.00 0.00 0.00 0.00 0.00 0.00 0.00 0.00 0.00 0.00 0.00 0.00 0.00 0.00 0.00 0.00 0.00 0.00 0.00 0.00 0.00 0.00 0.00
0.14 0.11 0.06 0.09 0.03 0.03 0.02 0.02 0.01 0.03 0.02 0.01 0.01 0.02 0.01 0.01 0.00 0.00 0.00 0.00 0.00 0.00 0.00 0.00 0.00 0.00 0.00 0.00 0.00 0.00 0.00 0.00 0.00 0.00 0.00 0.00 0.00 0.00
0.08 0.11 0.12 0.10 0.06 0.04 0.04 0.02 0.02 0.02 0.03 0.02 0.01 0.01 0.02 0.01 0.00 0.00 0.00 0.00 0.00 0.00 0.00 0.00 0.01 0.00 0.00 0.00 0.00 0.00 0.00 0.00 0.00 0.00 0.00 0.00 0.03 0.10
0.14 0.08 0.09 0.11 0.15 0.12 0.07 0.06 0.04 0.02 0.02 0.01 0.01 0.01 0.01 0.01 0.01 0.02 0.01 0.02 0.03 0.02 0.01 0.01 0.01 0.01 0.01 0.01 0.01 0.00 0.01 0.00 0.01 0.02 0.04 0.12 0.19 0.23
0.71 0.41 0.28 0.27 0.21 0.24 0.29 0.29 0.20 0.13 0.09 0.06 0.05 0.04 0.03 0.02 0.06 0.10 0.07 0.04 0.03 0.02 0.03 0.02 0.02 0.02 0.03 0.02 0.02 0.02 0.03 0.03 0.03 0.05 0.11 0.16 0.22 0.31
1.00 0.98 0.91 0.86 0.68 0.50 0.48 0.49 0.66 0.65 0.41 0.22 0.19 0.12 0.07 0.07 0.12 0.20 0.19 0.14 0.11 0.08 0.08 0.09 0.04 0.02 0.01 0.01 0.02 0.02 0.02 0.02 0.04 0.06 0.08 0.09 0.12 0.16
0.66 0.76 0.88 0.77 0.82 0.88 0.69 0.69 0.67 0.59 0.58 0.55 0.33 0.24 0.26 0.23 0.24 0.13 0.12 0.15 0.18 0.18 0.16 0.12 0.03 0.03 0.02 0.04 0.04 0.04 0.05 0.04 0.02 0.01 0.02 0.05 0.09 0.12
0.24 0.21 0.32 0.41 0.40 0.32 0.35 0.32 0.29 0.39 0.48 0.47 0.34 0.22 0.17 0.17 0.13 0.11 0.14 0.18 0.17 0.10 0.09 0.08 0.04 0.03 0.02 0.01 0.00 0.01 0.01 0.01 0.01 0.00 0.00 0.02 0.03 0.06
0.13 0.03 0.03 0.07 0.15 0.16 0.17 0.16 0.15 0.12 0.12 0.21 0.28 0.18 0.13 0.13 0.22 0.10 0.04 0.11 0.10 0.06 0.04 0.05 0.02 0.03 0.04 0.03 0.02 0.02 0.01 0.01 0.00 0.00 0.00 0.00 0.01 0.03
0.17 0.08 0.01 0.01 0.02 0.03 0.04 0.07 0.12 0.15 0.20 0.17 0.11 0.07 0.07 0.09 0.14 0.16 0.07 0.05 0.08 0.05 0.05 0.07 0.04 0.02 0.03 0.02 0.01 0.02 0.02 0.01 0.01 0.00 0.00 0.00 0.01 0.02
0.06 0.07 0.05 0.02 0.01 0.00 0.00 0.01 0.03 0.05 0.05 0.07 0.05 0.04 0.04 0.04 0.05 0.06 0.13 0.12 0.11 0.05 0.08 0.13 0.08 0.03 0.02 0.02 0.01 0.00 0.00 0.00 0.00 0.00 0.00 0.00 0.01 0.02
0.06 0.04 0.03 0.02 0.01 0.01 0.00 0.00 0.00 0.00 0.01 0.01 0.01 0.02 0.03 0.03 0.05 0.07 0.11 0.16 0.12 0.08 0.10 0.08 0.08 0.09 0.10 0.08 0.05 0.04 0.05 0.02 0.01 0.01 0.01 0.00 0.01 0.04
0.02 0.02 0.01 0.01 0.00 0.00 0.00 0.00 0.00 0.00 0.01 0.01 0.01 0.01 0.01 0.01 0.01 0.01 0.01 0.02 0.04 0.05 0.05 0.06 0.07 0.07 0.07 0.06 0.04 0.03 0.04 0.03 0.02 0.01 0.01 0.00 0.00 0.00
0.00 0.00 0.00 0.01 0.01 0.01 0.00 0.00 0.01 0.00 0.00 0.00 0.01 0.00 0.00 0.00 0.00 0.00 0.01 0.00 0.00 0.01 0.02 0.04 0.06 0.07 0.07 0.06 0.05 0.03 0.04 0.04 0.05 0.05 0.04 0.02 0.02 0.02
0.00 0.01 0.00 0.01 0.01 0.00 0.01 0.01 0.01 0.01 0.00 0.00 0.00 0.00 0.00 0.00 0.00 0.00 0.00 0.01 0.01 0.00 0.00 0.01 0.01 0.02 0.04 0.05 0.05 0.02 0.02 0.02 0.03 0.04 0.04 0.03 0.02 0.02
0.00 0.00 0.00 0.00 0.00 0.00 0.00 0.00 0.00 0.00 0.00 0.00 0.00 0.00 0.00 0.00 0.02 0.00 0.00 0.00 0.01 0.01 0.01 0.01 0.02 0.02 0.02 0.02 0.02 0.02 0.00 0.00 0.00 0.01 0.01 0.00 0.00 0.00
0.01 0.00 0.00 0.00 0.00 0.00 0.00 0.00 0.00 0.00 0.00 0.00 0.00 0.00 0.00 0.00 0.00 0.00 0.00 0.00 0.00 0.01 0.02 0.02 0.02 0.02 0.02 0.02 0.02 0.03 0.06 0.02 0.02 0.01 0.00 0.00 0.01 0.02
0.00 0.00 0.00 0.00 0.00 0.00 0.00 0.00 0.00 0.00 0.00 0.00 0.00 0.00 0.00 0.00 0.00 0.00 0.01 0.03 0.04 0.01 0.02 0.02 0.03 0.10 0.04 0.07 0.08 0.08 0.07 0.08 0.05 0.03 0.02 0.01 0.00 0.00
0.00 0.00 0.00 0.00 0.00 0.00 0.00 0.00 0.00 0.01 0.00 0.00 0.00 0.00 0.00 0.00 0.00 0.00 0.00 0.00 0.01 0.00 0.02 0.05 0.08 0.09 0.07 0.06 0.05 0.05 0.07 0.08 0.05 0.03 0.01 0.01 0.00 0.00
0.01 0.01 0.01 0.01 0.00 0.00 0.00 0.00 0.00 0.00 0.01 0.00 0.00 0.01 0.00 0.00 0.00 0.00 0.00 0.01 0.02 0.02 0.04 0.05 0.06 0.08 0.09 0.08 0.09 0.08 0.08 0.07 0.05 0.04 0.01 0.00 0.00 0.00

GFSNE_prec_precacc6_249.txt.gz
Total_Precipitation_Accumulation
0.01 0.01 0.00 0.00 0.00 0.00 0.00 0.00 0.00 0.00 0.00 0.00 0.00 0.00 0.00 0.00 0.00 0.00 0.00 0.00 0.00 0.00 0.00 0.00 0.00 0.00 0.00 0.00 0.00 0.00 0.00 0.00 0.00 0.00 0.00 0.00 0.00 0.00
0.02 0.00 0.00 0.00 0.00 0.00 0.00 0.00 0.01 0.00 0.00 0.00 0.00 0.00 0.00 0.00 0.00 0.00 0.00 0.00 0.00 0.00 0.00 0.00 0.00 0.00 0.00 0.00 0.00 0.00 0.00 0.00 0.00 0.00 0.00 0.00 0.00 0.00
0.04 0.01 0.00 0.00 0.00 0.00 0.00 0.00 0.00 0.00 0.00 0.00 0.00 0.00 0.00 0.00 0.00 0.00 0.00 0.00 0.00 0.00 0.00 0.00 0.00 0.00 0.00 0.00 0.00 0.00 0.00 0.00 0.00 0.00 0.00 0.00 0.00 0.00
0.04 0.02 0.00 0.00 0.00 0.00 0.00 0.00 0.00 0.01 0.00 0.00 0.00 0.00 0.00 0.00 0.00 0.00 0.00 0.00 0.00 0.00 0.00 0.00 0.00 0.00 0.00 0.00 0.00 0.00 0.00 0.00 0.00 0.00 0.00 0.00 0.00 0.00
0.06 0.03 0.01 0.03 0.00 0.00 0.00 0.00 0.00 0.00 0.01 0.01 0.01 0.01 0.00 0.00 0.00 0.00 0.00 0.00 0.00 0.00 0.00 0.00 0.00 0.00 0.00 0.00 0.00 0.00 0.00 0.00 0.00 0.00 0.00 0.00 0.00 0.00
0.02 0.04 0.05 0.03 0.02 0.01 0.01 0.00 0.01 0.00 0.01 0.02 0.01 0.01 0.02 0.01 0.00 0.00 0.00 0.00 0.00 0.00 0.00 0.00 0.00 0.00 0.00 0.00 0.00 0.00 0.00 0.00 0.00 0.00 0.00 0.00 0.00 0.00
0.05 0.02 0.04 0.06 0.05 0.05 0.03 0.02 0.01 0.00 0.00 0.00 0.00 0.00 0.00 0.01 0.00 0.00 0.00 0.00 0.01 0.01 0.00 0.00 0.00 0.00 0.00 0.00 0.00 0.00 0.00 0.00 0.00 0.00 0.00 0.00 0.01 0.03
0.26 0.15 0.06 0.08 0.05 0.07 0.12 0.17 0.09 0.05 0.03 0.02 0.01 0.01 0.00 0.00 0.02 0.02 0.01 0.01 0.00 0.00 0.02 0.01 0.00 0.00 0.00 0.01 0.01 0.01 0.02 0.02 0.01 0.02 0.04 0.07 0.08 0.11
0.88 0.67 0.46 0.52 0.43 0.23 0.25 0.28 0.43 0.54 0.33 0.16 0.11 0.06 0.03 0.03 0.07 0.12 0.13 0.08 0.05 0.04 0.03 0.02 0.01 0.00 0.01 0.01 0.02 0.03 0.02 0.02 0.02 0.02 0.04 0.05 0.05 0.07
0.78 1.02 0.94 0.76 0.83 0.88 0.67 0.61 0.62 0.57 0.58 0.58 0.42 0.30 0.29 0.30 0.32 0.28 0.26 0.32 0.29 0.17 0.15 0.12 0.05 0.04 0.03 0.04 0.05 0.06 0.05 0.04 0.02 0.02 0.02 0.04 0.05 0.05
0.57 0.61 0.71 0.76 0.56 0.63 0.69 0.60 0.58 0.64 0.69 0.70 0.55 0.48 0.43 0.36 0.35 0.50 0.57 0.44 0.40 0.26 0.16 0.11 0.06 0.03 0.03 0.03 0.01 0.02 0.01 0.01 0.01 0.02 0.02 0.03 0.04 0.05
0.30 0.36 0.41 0.32 0.35 0.30 0.41 0.46 0.28 0.27 0.28 0.39 0.59 0.62 0.47 0.38 0.40 0.32 0.24 0.22 0.18 0.10 0.05 0.05 0.04 0.03 0.05 0.03 0.02 0.01 0.01 0.01 0.01 0.00 0.00 0.01 0.01 0.02
0.42 0.30 0.28 0.31 0.16 0.13 0.16 0.15 0.16 0.18 0.22 0.21 0.24 0.31 0.30 0.25 0.26 0.27 0.16 0.10 0.11 0.06 0.06 0.10 0.06 0.04 0.05 0.03 0.01 0.02 0.02 0.02 0.01 0.00 0.01 0.01 0.00 0.01
0.38 0.37 0.27 0.24 0.23 0.15 0.08 0.08 0.10 0.08 0.07 0.11 0.18 0.22 0.26 0.24 0.18 0.16 0.21 0.16 0.11 0.04 0.05 0.11 0.07 0.04 0.04 0.04 0.02 0.01 0.00 0.00 0.00 0.00 0.00 0.00 0.00 0.01
0.19 0.24 0.30 0.23 0.12 0.09 0.11 0.08 0.04 0.02 0.03 0.03 0.03 0.09 0.16 0.23 0.25 0.22 0.23 0.25 0.15 0.10 0.09 0.06 0.05 0.06 0.08 0.07 0.06 0.05 0.05 0.02 0.01 0.01 0.01 0.01 0.01 0.00
0.06 0.08 0.12 0.16 0.15 0.09 0.07 0.06 0.04 0.02 0.01 0.01 0.01 0.01 0.04 0.09 0.09 0.10 0.09 0.10 0.11 0.09 0.07 0.08 0.08 0.07 0.10 0.10 0.08 0.07 0.05 0.05 0.03 0.03 0.03 0.03 0.02 0.01
0.00 0.01 0.02 0.04 0.07 0.08 0.06 0.06 0.06 0.04 0.01 0.00 0.00 0.00 0.01 0.01 0.02 0.03 0.04 0.04 0.04 0.03 0.03 0.06 0.08 0.05 0.04 0.04 0.05 0.06 0.08 0.07 0.07 0.07 0.06 0.05 0.04 0.03
0.00 0.00 0.00 0.01 0.02 0.01 0.01 0.02 0.02 0.02 0.01 0.01 0.01 0.00 0.00 0.00 0.00 0.00 0.01 0.01 0.01 0.01 0.00 0.01 0.01 0.01 0.02 0.04 0.07 0.02 0.01 0.02 0.03 0.05 0.06 0.06 0.05 0.04
0.00 0.00 0.00 0.00 0.00 0.00 0.01 0.01 0.01 0.01 0.01 0.01 0.02 0.01 0.01 0.01 0.02 0.00 0.00 0.00 0.00 0.01 0.00 0.00 0.00 0.00 0.00 0.00 0.01 0.01 0.00 0.00 0.00 0.01 0.02 0.02 0.02 0.03
0.00 0.00 0.00 0.00 0.00 0.00 0.00 0.00 0.00 0.00 0.00 0.00 0.01 0.01 0.02 0.03 0.04 0.02 0.01 0.00 0.00 0.01 0.01 0.02 0.02 0.01 0.01 0.01 0.02 0.03 0.05 0.02 0.02 0.02 0.01 0.01 0.03 0.03
0.00 0.00 0.00 0.00 0.00 0.00 0.00 0.00 0.00 0.00 0.00 0.00 0.00 0.00 0.01 0.01 0.02 0.02 0.01 0.02 0.02 0.00 0.00 0.01 0.01 0.05 0.02 0.04 0.06 0.06 0.09 0.12 0.08 0.05 0.06 0.05 0.04 0.02
0.00 0.00 0.00 0.00 0.00 0.00 0.00 0.00 0.00 0.00 0.00 0.00 0.00 0.00 0.00 0.00 0.00 0.01 0.01 0.00 0.00 0.00 0.00 0.00 0.00 0.02 0.02 0.03 0.03 0.03 0.07 0.10 0.12 0.11 0.08 0.06 0.03 0.03
0.00 0.01 0.00 0.00 0.00 0.00 0.00 0.00 0.00 0.00 0.00 0.00 0.00 0.01 0.01 0.00 0.01 0.01 0.01 0.01 0.01 0.01 0.01 0.00 0.01 0.02 0.03 0.03 0.05 0.05 0.08 0.09 0.09 0.09 0.08 0.06 0.03 0.02

GFSNE_prec_precacc6_255.txt.gz
Total_Precipitation_Accumulation
0.01 0.00 0.00 0.00 0.00 0.00 0.00 0.00 0.00 0.00 0.00 0.00 0.00 0.00 0.00 0.00 0.00 0.00 0.00 0.00 0.00 0.00 0.00 0.00 0.00 0.00 0.00 0.00 0.00 0.00 0.00 0.00 0.00 0.01 0.01 0.01 0.01 0.01
0.04 0.01 0.00 0.00 0.00 0.00 0.00 0.00 0.00 0.00 0.00 0.00 0.00 0.00 0.00 0.00 0.00 0.00 0.00 0.00 0.00 0.00 0.00 0.00 0.00 0.00 0.00 0.00 0.00 0.00 0.00 0.00 0.00 0.00 0.00 0.00 0.00 0.00
0.09 0.04 0.01 0.00 0.00 0.00 0.00 0.00 0.00 0.00 0.00 0.00 0.00 0.00 0.00 0.00 0.00 0.00 0.00 0.00 0.00 0.00 0.00 0.00 0.00 0.00 0.00 0.00 0.00 0.00 0.00 0.00 0.00 0.00 0.00 0.00 0.00 0.00
0.16 0.09 0.04 0.02 0.00 0.00 0.00 0.00 0.00 0.00 0.00 0.00 0.00 0.00 0.00 0.00 0.00 0.00 0.00 0.00 0.00 0.00 0.00 0.00 0.00 0.00 0.00 0.00 0.00 0.00 0.00 0.00 0.00 0.00 0.00 0.00 0.00 0.00
0.30 0.14 0.08 0.05 0.01 0.00 0.00 0.00 0.00 0.00 0.00 0.00 0.00 0.00 0.00 0.00 0.00 0.00 0.00 0.00 0.00 0.00 0.00 0.00 0.00 0.00 0.00 0.00 0.00 0.00 0.00 0.00 0.00 0.00 0.00 0.00 0.00 0.00
0.94 0.41 0.15 0.11 0.05 0.03 0.01 0.00 0.01 0.00 0.00 0.00 0.00 0.00 0.00 0.00 0.00 0.00 0.00 0.00 0.00 0.00 0.00 0.00 0.00 0.00 0.00 0.00 0.00 0.00 0.00 0.00 0.00 0.00 0.00 0.00 0.00 0.00
0.79 0.48 0.23 0.16 0.06 0.06 0.03 0.01 0.01 0.01 0.00 0.00 0.00 0.00 0.00 0.00 0.00 0.00 0.00 0.00 0.00 0.00 0.00 0.00 0.00 0.00 0.00 0.00 0.00 0.00 0.00 0.00 0.00 0.00 0.00 0.00 0.00 0.00
1.19 0.74 0.41 0.30 0.13 0.07 0.05 0.06 0.04 0.03 0.02 0.00 0.00 0.00 0.00 0.00 0.00 0.00 0.00 0.00 0.00 0.00 0.00 0.00 0.00 0.00 0.00 0.00 0.00 0.00 0.00 0.00 0.00 0.00 0.00 0.00 0.00 0.01
1.04 1.17 0.87 0.48 0.27 0.09 0.05 0.03 0.02 0.02 0.01 0.00 0.00 0.00 0.00 0.00 0.00 0.00 0.00 0.00 0.00 0.00 0.00 0.00 0.00 0.00 0.00 0.00 0.00 0.00 0.00 0.00 0.00 0.00 0.00 0.00 0.01 0.01
0.44 0.68 1.00 0.91 0.54 0.25 0.07 0.04 0.02 0.01 0.00 0.00 0.00 0.00 0.00 0.01 0.01 0.01 0.01 0.01 0.00 0.00 0.00 0.01 0.01 0.01 0.00 0.00 0.00 0.01 0.01 0.01 0.02 0.02 0.02 0.02 0.03 0.04
0.14 0.23 0.46 0.57 0.62 0.35 0.16 0.17 0.13 0.06 0.06 0.04 0.02 0.02 0.01 0.01 0.01 0.02 0.04 0.05 0.05 0.05 0.04 0.03 0.05 0.05 0.04 0.03 0.02 0.03 0.04 0.03 0.02 0.02 0.02 0.02 0.03 0.04
0.03 0.08 0.23 0.29 0.24 0.31 0.33 0.38 0.45 0.39 0.25 0.11 0.09 0.09 0.14 0.11 0.08 0.06 0.10 0.14 0.13 0.09 0.03 0.04 0.04 0.07 0.14 0.11 0.08 0.07 0.07 0.07 0.06 0.04 0.03 0.02 0.02 0.01
0.02 0.03 0.06 0.19 0.27 0.22 0.33 0.52 0.54 0.42 0.34 0.20 0.15 0.18 0.22 0.22 0.16 0.15 0.18 0.15 0.14 0.07 0.03 0.06 0.08 0.07 0.07 0.05 0.02 0.04 0.06 0.06 0.06 0.03 0.03 0.02 0.03 0.03
0.01 0.02 0.05 0.13 0.09 0.16 0.26 0.35 0.40 0.36 0.27 0.19 0.18 0.24 0.26 0.26 0.28 0.33 0.36 0.30 0.18 0.09 0.08 0.15 0.12 0.05 0.03 0.04 0.04 0.01 0.02 0.03 0.05 0.04 0.03 0.04 0.05 0.04
0.01 0.01 0.04 0.09 0.11 0.15 0.17 0.24 0.24 0.17 0.18 0.26 0.28 0.25 0.24 0.21 0.20 0.28 0.35 0.41 0.36 0.24 0.19 0.20 0.19 0.14 0.09 0.07 0.06 0.05 0.07 0.07 0.06 0.06 0.07 0.06 0.04 0.04
0.00 0.01 0.02 0.05 0.14 0.16 0.14 0.15 0.17 0.20 0.20 0.18 0.20 0.25 0.25 0.19 0.17 0.17 0.16 0.19 0.22 0.16 0.13 0.19 0.21 0.23 0.23 0.18 0.16 0.13 0.10 0.11 0.09 0.07 0.06 0.06 0.05 0.05
0.00 0.00 0.00 0.00 0.02 0.08 0.18 0.18 0.16 0.18 0.19 0.18 0.18 0.18 0.17 0.16 0.17 0.17 0.16 0.17 0.17 0.12 0.12 0.16 0.20 0.22 0.21 0.17 0.17 0.12 0.09 0.09 0.08 0.09 0.11 0.08 0.07 0.07
0.00 0.00 0.00 0.00 0.00 0.01 0.02 0.04 0.09 0.15 0.18 0.19 0.17 0.16 0.18 0.20 0.18 0.16 0.12 0.14 0.13 0.11 0.13 0.17 0.19 0.23 0.24 0.21 0.23 0.15 0.16 0.14 0.10 0.07 0.05 0.05 0.06 0.06
0.00 0.00 0.00 0.00 0.00 0.00 0.00 0.00 0.00 0.00 0.02 0.05 0.10 0.14 0.15 0.15 0.17 0.16 0.15 0.12 0.10 0.10 0.12 0.12 0.11 0.11 0.12 0.11 0.12 0.18 0.15 0.16 0.22 0.25 0.18 0.11 0.05 0.03
0.00 0.00 0.00 0.00 0.00 0.00 0.00 0.00 0.00 0.00 0.00 0.00 0.00 0.02 0.04 0.08 0.12 0.12 0.10 0.09 0.09 0.08 0.07 0.09 0.11 0.12 0.13 0.10 0.08 0.06 0.13 0.10 0.11 0.09 0.06 0.04 0.03 0.06
0.01 0.01 0.01 0.00 0.00 0.00 0.00 0.00 0.00 0.00 0.00 0.00 0.00 0.00 0.00 0.00 0.01 0.04 0.07 0.08 0.10 0.09 0.08 0.06 0.05 0.14 0.16 0.11 0.08 0.05 0.06 0.05 0.02 0.02 0.02 0.02 0.02 0.01
0.02 0.02 0.01 0.01 0.00 0.00 0.00 0.00 0.00 0.00 0.00 0.00 0.00 0.00 0.00 0.00 0.00 0.00 0.01 0.03 0.05 0.04 0.05 0.06 0.11 0.14 0.11 0.07 0.06 0.07 0.08 0.10 0.09 0.05 0.05 0.05 0.03 0.02
0.03 0.03 0.02 0.01 0.01 0.01 0.00 0.00 0.00 0.00 0.00 0.00 0.00 0.00 0.00 0.00 0.00 0.00 0.00 0.00 0.01 0.01 0.02 0.03 0.06 0.10 0.10 0.09 0.09 0.09 0.11 0.11 0.11 0.08 0.07 0.07 0.05 0.03

GFSNE_prec_precacc6_258.txt.gz
Total_Precipitation_Accumulation
0.06 0.04 0.01 0.00 0.00 0.00 0.00 0.00 0.00 0.00 0.00 0.00 0.00 0.00 0.00 0.00 0.00 0.00 0.00 0.00 0.00 0.00 0.00 0.00 0.00 0.00 0.00 0.00 0.00 0.00 0.00 0.00 0.00 0.00 0.00 0.00 0.01 0.01
0.12 0.07 0.03 0.01 0.00 0.00 0.00 0.00 0.00 0.00 0.00 0.00 0.00 0.00 0.00 0.00 0.00 0.00 0.00 0.00 0.00 0.00 0.00 0.00 0.00 0.00 0.00 0.00 0.00 0.00 0.00 0.00 0.00 0.00 0.00 0.00 0.00 0.00
0.16 0.10 0.06 0.04 0.02 0.00 0.00 0.00 0.00 0.00 0.00 0.00 0.00 0.00 0.00 0.00 0.00 0.00 0.00 0.00 0.00 0.00 0.00 0.00 0.00 0.00 0.00 0.00 0.00 0.00 0.00 0.00 0.00 0.00 0.00 0.00 0.00 0.00
0.22 0.10 0.07 0.07 0.04 0.02 0.01 0.00 0.00 0.00 0.00 0.00 0.00 0.00 0.00 0.00 0.00 0.00 0.00 0.00 0.00 0.00 0.00 0.00 0.00 0.00 0.00 0.00 0.00 0.00 0.00 0.00 0.00 0.00 0.00 0.00 0.00 0.00
0.56 0.17 0.10 0.09 0.06 0.03 0.02 0.01 0.00 0.00 0.00 0.00 0.00 0.00 0.00 0.00 0.00 0.00 0.00 0.00 0.00 0.00 0.00 0.00 0.00 0.00 0.00 0.00 0.00 0.00 0.00 0.00 0.00 0.00 0.00 0.00 0.00 0.00
1.88 1.22 0.38 0.15 0.10 0.06 0.04 0.03 0.01 0.00 0.00 0.00 0.00 0.00 0.00 0.00 0.00 0.00 0.00 0.00 0.00 0.00 0.00 0.00 0.00 0.00 0.00 0.00 0.00 0.00 0.00 0.00 0.00 0.00 0.00 0.00 0.00 0.00
1.32 1.62 1.24 0.81 0.35 0.09 0.05 0.05 0.03 0.01 0.00 0.00 0.00 0.00 0.00 0.00 0.00 0.00 0.00 0.00 0.00 0.00 0.00 0.00 0.00 0.00 0.00 0.00 0.00 0.00 0.00 0.00 0.00 0.00 0.00 0.00 0.00 0.00
0.88 1.02 1.02 0.83 0.68 0.37 0.11 0.07 0.06 0.05 0.02 0.00 0.00 0.00 0.00 0.00 0.00 0.00 0.00 0.00 0.00 0.00 0.00 0.00 0.00 0.00 0.00 0.00 0.00 0.00 0.00 0.00 0.00 0.00 0.00 0.00 0.00 0.00
0.58 0.83 0.92 0.83 0.58 0.39 0.37 0.14 0.03 0.02 0.02 0.00 0.00 0.00 0.00 0.00 0.00 0.00 0.00 0.00 0.00 0.00 0.00 0.00 0.00 0.00 0.00 0.00 0.00 0.00 0.00 0.00 0.00 0.00 0.00 0.00 0.00 0.00
0.23 0.41 0.64 0.74 0.68 0.39 0.29 0.26 0.11 0.01 0.00 0.00 0.00 0.00 0.00 0.01 0.01 0.01 0.01 0.00 0.00 0.00 0.00 0.00 0.00 0.00 0.00 0.00 0.00 0.00 0.00 0.00 0.00 0.00 0.00 0.00 0.01 0.02
0.09 0.15 0.27 0.36 0.41 0.43 0.34 0.30 0.24 0.12 0.05 0.02 0.01 0.00 0.00 0.00 0.00 0.00 0.00 0.00 0.00 0.00 0.00 0.00 0.01 0.00 0.00 0.00 0.00 0.00 0.00 0.00 0.00 0.00 0.00 0.00 0.02 0.04
0.01 0.03 0.09 0.15 0.14 0.17 0.30 0.32 0.26 0.18 0.10 0.05 0.03 0.02 0.01 0.00 0.00 0.00 0.00 0.00 0.00 0.01 0.01 0.00 0.01 0.01 0.01 0.00 0.00 0.00 0.00 0.01 0.03 0.03 0.02 0.01 0.01 0.01
0.00 0.00 0.02 0.06 0.06 0.08 0.14 0.23 0.23 0.20 0.16 0.09 0.06 0.07 0.04 0.03 0.03 0.00 0.00 0.01 0.01 0.01 0.00 0.00 0.01 0.01 0.01 0.01 0.00 0.00 0.01 0.02 0.02 0.01 0.02 0.02 0.02 0.03
0.00 0.00 0.01 0.04 0.02 0.03 0.06 0.17 0.18 0.11 0.11 0.11 0.08 0.11 0.17 0.17 0.19 0.22 0.21 0.14 0.06 0.03 0.01 0.03 0.03 0.01 0.01 0.01 0.01 0.01 0.01 0.02 0.03 0.03 0.03 0.03 0.06 0.07
0.00 0.00 0.00 0.01 0.01 0.01 0.03 0.08 0.11 0.10 0.14 0.20 0.22 0.20 0.20 0.17 0.15 0.18 0.22 0.29 0.29 0.23 0.18 0.13 0.09 0.06 0.04 0.03 0.02 0.02 0.04 0.03 0.03 0.03 0.05 0.08 0.10 0.10
0.00 0.00 0.00 0.00 0.00 0.00 0.00 0.01 0.03 0.07 0.13 0.16 0.19 0.21 0.23 0.20 0.16 0.16 0.15 0.11 0.13 0.14 0.12 0.12 0.15 0.17 0.21 0.16 0.13 0.11 0.07 0.08 0.07 0.06 0.06 0.06 0.06 0.05
0.00 0.00 0.00 0.00 0.00 0.00 0.00 0.00 0.00 0.02 0.06 0.08 0.12 0.17 0.20 0.18 0.19 0.18 0.16 0.15 0.14 0.10 0.10 0.12 0.14 0.14 0.15 0.14 0.15 0.11 0.09 0.08 0.06 0.06 0.06 0.04 0.04 0.05
0.00 0.00 0.00 0.00 0.00 0.00 0.00 0.00 0.00 0.01 0.02 0.03 0.07 0.12 0.18 0.22 0.23 0.21 0.17 0.16 0.16 0.15 0.14 0.15 0.17 0.18 0.17 0.16 0.18 0.10 0.11 0.12 0.11 0.10 0.07 0.04 0.02 0.03
0.00 0.00 0.00 0.00 0.00 0.00 0.00 0.00 0.00 0.00 0.00 0.01 0.04 0.07 0.09 0.13 0.21 0.20 0.20 0.18 0.16 0.16 0.16 0.16 0.16 0.15 0.14 0.11 0.11 0.20 0.16 0.15 0.20 0.24 0.22 0.16 0.09 0.07
0.01 0.01 0.01 0.01 0.00 0.00 0.00 0.00 0.00 0.00 0.00 0.00 0.00 0.01 0.02 0.05 0.09 0.11 0.11 0.13 0.16 0.18 0.17 0.17 0.19 0.22 0.20 0.17 0.14 0.12 0.22 0.13 0.13 0.13 0.12 0.11 0.10 0.15
0.01 0.02 0.02 0.01 0.01 0.00 0.00 0.00 0.00 0.00 0.00 0.00 0.00 0.00 0.00 0.00 0.01 0.03 0.07 0.12 0.15 0.14 0.14 0.15 0.16 0.24 0.23 0.17 0.13 0.12 0.14 0.16 0.09 0.07 0.08 0.08 0.07 0.05
0.02 0.02 0.02 0.02 0.01 0.01 0.00 0.00 0.00 0.00 0.00 0.00 0.00 0.00 0.00 0.00 0.00 0.00 0.00 0.02 0.05 0.07 0.09 0.13 0.18 0.18 0.14 0.12 0.12 0.14 0.17 0.21 0.22 0.16 0.13 0.11 0.08 0.05
0.04 0.03 0.03 0.02 0.02 0.01 0.01 0.01 0.00 0.00 0.00 0.00 0.00 0.00 0.00 0.00 0.00 0.00 0.00 0.00 0.00 0.01 0.01 0.04 0.10 0.15 0.15 0.14 0.15 0.16 0.19 0.22 0.24 0.22 0.18 0.16 0.12 0.09